Home   Weather   Paphos   Past weeks

Flag for Cyprus Past Weather in Paphos, Cyprus — Yesterday and Last 2 Weeks

Now
46 °F

Clear.


Feels Like: 42 °F
Forecast: 44 / 61 °F
Wind: 8 mph from Northeast

Location: Paphos Airport

Current Time: Jan 22, 2017 at 10:34:59 pm

Latest Report: Jan 22, 2017 at 10:00 pm


Visibility: 10 mi

Pressure: 30.27 "Hg

Humidity: 76%

Dew Point: 39 °F

Location of PaphosLocation

Past Weather in Paphos — Graph

°F

Paphos Temperature Yesterday

Maximum temperature yesterday: 61 °F (at 1:00 pm)
Minimum temperature yesterday: 46 °F (at 3:00 am)
Average temperature yesterday: 52 °F

High & Low Weather Summary for the Past Weeks

 TemperatureHumidityPressure
High66 °F (Jan 18, 2:00 pm)94% (Jan 8, 3:00 am)30.30 "Hg (Jan 8, 3:00 am)
Low41 °F (Jan 9, 7:30 pm)51% (Jan 9, 4:00 pm)29.71 "Hg (Jan 8, 11:30 am)
Average54 °F71%30.07 "Hg
* Reported Jan 7 9:00 pm — Jan 22 9:00 pm, Paphos, Weather by CustomWeather, © 2017

Note: Actual official high and low records may vary slightly from our data, if they occured in-between our weather recording intervals... More about our weather records

Advertising

Paphos Weather History for the Previous 24 Hours

Scroll right to see more
 ConditionsComfort  
Time TempWeatherWind HumidityBarometerVisibility
9:00 pm
Sun, Jan 22
48 °FClear.6 mph71%30.27 "Hg10 mi
8:30 pm48 °FClear.6 mph71%30.24 "Hg10 mi
8:00 pm50 °FPassing clouds.7 mph67%30.24 "HgN/A
7:30 pm50 °FPassing clouds.9 mph67%30.24 "HgN/A
7:00 pm50 °FPassing clouds.6 mph71%30.24 "HgN/A
6:30 pm50 °FPassing clouds.7 mph67%30.24 "HgN/A
6:00 pm52 °FPassing clouds.6 mph67%30.24 "HgN/A
5:30 pm54 °FPassing clouds.6 mph63%30.24 "HgN/A
5:00 pm59 °FPassing clouds.8 mph55%30.21 "HgN/A
4:30 pm59 °FPassing clouds.9 mph55%30.21 "HgN/A
4:00 pm61 °FPassing clouds.9 mph55%30.21 "HgN/A
3:30 pm61 °FPassing clouds.12 mph55%30.21 "HgN/A
3:00 pm63 °FScattered clouds.12 mph52%30.21 "HgN/A
2:30 pm63 °FPassing clouds.13 mph52%30.18 "HgN/A
2:00 pm63 °FPassing clouds.14 mph52%30.18 "HgN/A
1:30 pm63 °FScattered clouds.12 mph56%30.18 "HgN/A
1:00 pm63 °FScattered clouds.8 mph52%30.18 "HgN/A
12:30 pm63 °FScattered clouds.9 mph52%30.21 "HgN/A
12:00 pm61 °FScattered clouds.8 mph55%30.24 "HgN/A
11:30 am61 °FScattered clouds.6 mph55%30.24 "HgN/A
11:00 am61 °FPassing clouds.3 mph55%30.24 "HgN/A
10:30 am63 °FPassing clouds.2 mph52%30.24 "HgN/A
10:00 am59 °FPassing clouds.5 mph55%30.24 "HgN/A
9:30 am55 °FScattered clouds.6 mph59%30.24 "HgN/A
9:00 am54 °FScattered clouds.8 mph58%30.24 "HgN/A
8:30 am50 °FScattered clouds.8 mph67%30.24 "HgN/A
8:00 am46 °FPassing clouds.9 mph71%30.24 "HgN/A
7:30 am45 °FPassing clouds.8 mph76%30.24 "HgN/A
7:00 am45 °FPassing clouds.8 mph76%30.21 "HgN/A
6:30 am45 °FPassing clouds.8 mph76%30.21 "HgN/A
6:00 am45 °FPassing clouds.9 mph76%30.18 "HgN/A
5:30 am45 °FPassing clouds.9 mph76%30.18 "HgN/A
5:00 am45 °FPassing clouds.8 mph76%30.18 "HgN/A
4:30 am45 °FQuite cool.10 mph76%30.18 "HgN/A
4:00 am45 °FQuite cool.9 mph76%30.18 "HgN/A
3:30 am46 °FCool.10 mph71%30.18 "HgN/A
3:00 am45 °FQuite cool.9 mph76%30.18 "HgN/A
2:30 am45 °FQuite cool.8 mph76%30.18 "HgN/A
2:00 am45 °FPassing clouds.9 mph76%30.18 "HgN/A
1:30 am46 °FPassing clouds.9 mph71%30.18 "HgN/A
1:00 am45 °FPassing clouds.8 mph76%30.18 "HgN/A
12:30 am46 °FPassing clouds.8 mph71%30.18 "HgN/A
12:00 am46 °FPassing clouds.6 mph66%30.18 "HgN/A
11:30 pm
Sat, Jan 21
48 °FPassing clouds.9 mph66%30.18 "HgN/A
11:00 pm46 °FPassing clouds.9 mph71%30.18 "HgN/A
10:30 pm48 °FPassing clouds.10 mph66%30.18 "HgN/A
10:00 pm48 °FPassing clouds.7 mph66%30.18 "HgN/A
Weather by CustomWeather, © 2017

See weather overviewHow to use our weather pages